Location: Brisbane
(27.5000°S, 153.0170°E)
Time: 23:50:13
(UTC+10:00)

ISS - Visible Passes

Search period start: 23 April 2017 00:00
Search period end: 03 May 2017 00:00
Orbit: 400 x 409 km, 51.6° (Epoch: 23 April)

Date Brightness Start Highest point End Pass type
(mag) Time Alt. Az. Time Alt. Az. Time Alt. Az.
23 Apr -3.6 04:54:14 31° SSW 04:55:38 67° SE 04:58:54 10° NE visible
24 Apr -1.1 04:04:53 20° E 04:04:53 20° E 04:06:17 10° ENE visible
24 Apr -1.8 05:37:37 10° W 05:39:35 15° NW 05:41:33 10° NNW visible
24 Apr -1.1 18:58:41 10° N 18:58:55 11° N 18:58:55 11° N visible
25 Apr -2.6 04:48:18 29° NNW 04:48:18 29° NNW 04:50:30 10° NNE visible
25 Apr -1.6 18:08:10 10° NNE 18:09:24 12° NE 18:09:38 12° ENE visible
26 Apr -3.7 18:49:58 10° NW 18:52:57 71° NW 18:52:57 71° NW visible
27 Apr -3.0 17:58:00 10° NNW 18:01:03 35° NE 18:03:26 15° ESE visible
27 Apr -0.4 19:35:40 10° WSW 19:36:08 12° WSW 19:36:08 12° WSW visible
28 Apr -2.0 18:42:15 10° WNW 18:45:09 28° SW 18:46:30 21° S visible
29 Apr -3.4 17:49:31 10° NW 17:52:47 64° SW 17:56:06 10° SE visible
30 Apr -0.9 18:35:53 10° WSW 18:37:11 12° SW 18:38:29 10° SSW visible
01 May -1.6 17:42:00 10° W 17:44:39 22° SW 17:47:19 10° SSE visible
